Location: Bletchingley
(51.2333°N, 0.1000°W)
Time: 22:54:18
(UTC+00:00)

Cosmos 2082 Rocket - Pass Details

Date: 18 September 2020
Orbit: 834 x 852 km, 71.0° (Epoch: 21 October)

Event Time Altitude Azimuth Distance (km) Brightness Sun altitude
Rises 22:21:55 0° 327° (NNW) 3,394 6.4 -33.8°
Reaches altitude 10° 22:24:24 10° 323° (NW) 2,456 5.4 -34.0°
Enters shadow 22:28:04 38° 299° (WNW) 1,263 3.3 -34.3°
